Weather History for Jackson, TN

Change the Weather History Date:

Monday, February 10, 2014

  Actual Average Record
Temperature  
Mean Temperature 29 °F 41 °F  
Max Temperature 35 °F 51 °F 73 °F (1952)
Min Temperature 22 °F 31 °F 4 °F (1979)
Degree Days  
Heating Degree Days 36 24  
Month to date heating degree days 312 249  
Since 1 July heating degree days 2864 2498  
Cooling Degree Days 0 0  
Month to date cooling degree days 0 0  
Year to date cooling degree days 0 0  
Moisture  
Dew Point 19 °F    
Average Humidity 68    
Maximum Humidity 85    
Minimum Humidity 51    
Precipitation  
Precipitation 0.00 in 0.15 in 2.78 in (1966)
Month to date precipitation 4.48 1.51  
Year to date precipitation 7.49 5.58  
Snow  
Snow 0.00 in 0.00 in 3.00 in (2006)
Month to date snowfall 0.5 0.7  
Since 1 July snowfall 0.5 3.3  
Snow Depth 0.00 in    
Sea Level Pressure  
Sea Level Pressure 30.30 in    
Wind  
Wind Speed 13 mph (NNE)    
Max Wind Speed 18 mph    
Max Gust Speed 23 mph    
Visibility 10 miles    
Events      
T = Trace of Precipitation, MM = Missing Value Source: NWS Daily Summary

Daily Weather History Graph

Daily Weather History Graph

Search for Another Location

Airport:

Trip Planner

Search our weather history database for the weather conditions in past years. The results will help you decide how hot, cold, wet, or windy it might be!

Date:

Astronomy

Feb. 10, 2014 Rise Set
Actual Time 6:47 AM CST 5:32 PM CST
Civil Twilight 6:21 AM CST 5:59 PM CST
Nautical Twilight 5:51 AM CST 6:29 PM CST
Astronomical Twilight 5:21 AM CST 6:58 PM CST
Moon 2:04 PM CST (2/10) 3:37 AM CST (2/10)
Length of Visible Light 11h 37m
Length of Day
10h 45m
Waxing Gibbous, 85% of the Moon is Illuminated
Feb 10
Waxing Gibbous
Feb 14
Full
Feb 22
Last Quarter
Mar 1
New
Mar 8
First Quarter

Hourly Weather History & Observations

Time (CST) Temp. Windchill Dew Point Humidity Pressure Visibility Wind Dir Wind Speed Gust Speed Precip Events Conditions
12:10 AM 30.2 °F 21.9 °F 24.8 °F 80% 30.20 in 10.0 mi NE 9.2 mph - N/A   Overcast
12:53 AM 30.9 °F 21.2 °F 24.1 °F 76% 30.22 in 10.0 mi NE 12.7 mph - N/A   Overcast
1:53 AM 30.0 °F 21.1 °F 24.1 °F 79% 30.23 in 10.0 mi NE 10.4 mph - N/A   Overcast
2:53 AM 30.0 °F 20.5 °F 24.1 °F 79% 30.24 in 10.0 mi NNE 11.5 mph - N/A   Overcast
3:23 AM 30.2 °F 20.8 °F 24.8 °F 80% 30.22 in 10.0 mi NNE 11.5 mph - N/A   Overcast
3:53 AM 28.9 °F 19.2 °F 24.1 °F 82% 30.23 in 10.0 mi NNE 11.5 mph - N/A   Overcast
4:53 AM 28.0 °F 18.6 °F 23.0 °F 81% 30.26 in 10.0 mi NNE 10.4 mph - N/A   Overcast
5:08 AM 28.4 °F 16.2 °F 21.2 °F 74% 30.26 in 10.0 mi NNE 17.3 mph - N/A   Overcast
5:53 AM 27.0 °F 16.7 °F 21.0 °F 78% 30.28 in 10.0 mi NNE 11.5 mph - N/A   Overcast
6:44 AM 26.6 °F 15.2 °F 19.4 °F 74% 30.29 in 10.0 mi NE 13.8 mph - N/A   Scattered Clouds
6:53 AM 26.1 °F 15.6 °F 19.0 °F 75% 30.31 in 10.0 mi NE 11.5 mph - N/A   Partly Cloudy
7:12 AM 26.6 °F 15.7 °F 19.4 °F 74% 30.30 in 10.0 mi NNE 12.7 mph - N/A   Mostly Cloudy
7:53 AM 26.1 °F 14.0 °F 19.0 °F 75% 30.32 in 10.0 mi NNE 15.0 mph - N/A   Overcast
8:21 AM 26.6 °F 15.2 °F 19.4 °F 74% 30.33 in 10.0 mi North 13.8 mph - N/A   Overcast
8:53 AM 25.0 °F 12.2 °F 19.0 °F 78% 30.34 in 10.0 mi NNE 16.1 mph - N/A   Mostly Cloudy
9:04 AM 26.6 °F 14.7 °F 19.4 °F 74% 30.32 in 10.0 mi NNE 15.0 mph - N/A   Scattered Clouds
9:53 AM 27.0 °F 15.2 °F 18.0 °F 69% 30.36 in 10.0 mi NNE 15.0 mph - N/A   Clear
10:53 AM 27.0 °F 15.2 °F 17.1 °F 66% 30.35 in 10.0 mi NNE 15.0 mph - N/A   Clear
11:53 AM 30.9 °F 20.7 °F 17.1 °F 57% 30.33 in 10.0 mi NNE 13.8 mph - N/A   Clear
12:53 PM 33.1 °F 23.4 °F 17.1 °F 52% 30.30 in 10.0 mi NNE 13.8 mph - N/A   Clear
1:53 PM 34.0 °F 25.5 °F 18.0 °F 52% 30.28 in 10.0 mi North 11.5 mph - N/A   Clear
2:53 PM 32.0 °F 21.2 °F 19.9 °F 61% 30.29 in 10.0 mi North 16.1 mph - N/A   Overcast
3:53 PM 30.9 °F 20.7 °F 19.9 °F 64% 30.31 in 10.0 mi NNE 13.8 mph - N/A   Overcast
4:53 PM 28.9 °F 18.6 °F 19.0 °F 67% 30.31 in 10.0 mi NNE 12.7 mph - N/A   Overcast
5:53 PM 28.0 °F 17.0 °F 17.1 °F 63% 30.32 in 10.0 mi NNE 13.8 mph - N/A   Overcast
6:53 PM 26.1 °F 14.0 °F 17.1 °F 69% 30.34 in 10.0 mi NNE 15.0 mph - N/A   Partly Cloudy
7:53 PM 25.0 °F 13.1 °F 15.1 °F 66% 30.36 in 10.0 mi NNE 13.8 mph - N/A   Clear
8:53 PM 24.1 °F 13.1 °F 14.0 °F 65% 30.37 in 10.0 mi NNE 11.5 mph - N/A   Clear
9:53 PM 23.0 °F 11.1 °F 12.9 °F 65% 30.36 in 10.0 mi NNE 12.7 mph - N/A   Clear
10:53 PM 21.9 °F 10.4 °F 10.9 °F 63% 30.36 in 10.0 mi NE 11.5 mph - N/A   Clear
11:53 PM 21.9 °F 11.0 °F 10.0 °F 60% 30.36 in 10.0 mi NNE 10.4 mph - N/A   Clear